Regional Weather Roundup
Issued by NWS

Home | Current Version | Previous Version | Graphics & Text | Print | Product List | Glossary On
Versions: 1 2 3 4 5 6 7 8 9 10 11 12 13 14 15 16 17 18 19 20 21 22 23 24 25 26 27 28 29 30 31 32 33 34 35 36 37 38 39 40 41 42 43 44 45 46 47 48 49 50
044
ASUS43 KLSX 300407
RWRMO

WEATHER SUMMARY FOR MISSOURI
NATIONAL WEATHER SERVICE SPRINGFIELD MO
1100 PM CDT SUN MAY 29 2016

NOTE: "FAIR" INDICATES FEW OR NO CLOUDS BELOW 12,000 FEET WITH NO
       SIGNIFICANT WEATHER AND/OR OBSTRUCTIONS TO VISIBILITY.
       CURRENT SKY AND/OR WEATHER CONDITIONS ARE NOT AVAILABLE FOR
       CHILLICOTHE AND FARMINGTON.

MOZ001>031-035>038-043-044-053-054-300500-
...NORTHERN AND WESTERN MISSOURI...

CITY           SKY/WX    TMP DP  RH WIND       PRES   REMARKS
KANSAS CTY INT CLOUDY    69  60  73 S7        30.06R
KANSAS C DTWN  CLOUDY    75  60  59 SW5       30.04S
LEE`S SUMMIT   CLOUDY    73  61  65 S9        30.06S
ST JOSEPH      CLOUDY    72  61  68 CALM      30.05R
CHILLICOTHE      N/A     69  66  90 S3        30.06R
KIRKSVILLE     CLOUDY    70  62  76 S6        30.06R

$$
MOZ066>068-077>081-088>096-101>105-300500-
...SOUTHWEST MISSOURI...

CITY           SKY/WX    TMP DP  RH WIND       PRES   REMARKS
SPRINGFIELD    CLOUDY    69  62  78 SE6       30.09R
JOPLIN         CLEAR     71  65  81 CALM      30.08R

$$
MOZ032>034-039>042-045>050-055>058-069>072-300500-
...CENTRAL MISSOURI...

CITY           SKY/WX    TMP DP  RH WIND       PRES   REMARKS
COLUMBIA       CLEAR     72  64  76 CALM      30.08R
JEFFERSON CITY CLEAR     70  64  81 CALM      30.07R
ROLLA          CLOUDY    64  61  90 S6        30.08S
SEDALIA        CLOUDY    71  64  78 S5        30.08S
WHITEMAN AFB   PTCLDY    72  64  75 S3        30.06R
WARRENSBURG    CLOUDY    70  63  78 S5        30.06S

$$
MOZ051-052-059>065-300500-
...EAST CENTRAL MISSOURI...

CITY           SKY/WX    TMP DP  RH WIND       PRES   REMARKS
ST LOUIS INTL  PTCLDY    75  60  59 CALM      30.06F
SPIRIT OF STL  CLOUDY    67  64  90 CALM      30.05S
ST CHARLES     CLEAR     71  67  87 CALM      30.04F

$$
MOZ072>076-082>087-097>100-106>115-300500-
...SOUTH CENTRAL AND SOUTHEAST MISSOURI...

CITY           SKY/WX    TMP DP  RH WIND       PRES   REMARKS
CAPE GIRARDEAU CLEAR     68  67  96 CALM      30.05F
FARMINGTON     CLOUDY    66  65  96 CALM      30.09S
POPLAR BLUFF   CLEAR     72  68  87 NW3       30.06S
WEST PLAINS    CLEAR     66  62  87 CALM      30.12R

$$



USA.gov is the U.S. government's official web portal to all federal, state and local government web resources and services.